Other Public Products
Issued by NWS Grand Forks, ND

Home | Current Version | Previous Version | Text Only | Print | Product List | Glossary On
Versions: 1 2 3 4 5 6 7 8 9 10 11 12 13 14 15 16 17 18 19 20 21 22 23 24 25 26 27 28 29 30 31 32 33 34 35 36 37 38 39 40 41 42 43 44 45 46 47 48 49 50
000
FPUS83 KFGF 241231
OPUFGF
PRAIRIE TO PINES WEATHER ROUNDUP
NATIONAL WEATHER SERVICE EASTERN NORTH DAKOTA/GRAND FORKS ND
700 AM CDT FRI OCT 24 2014

 **SATELLITE DATA USED TO AUGMENT SKY COVER AT AUTOMATED STATIONS**
 *****  WEATHER ACROSS EASTERN NORTH DAKOTA  *****

CITY           SKY/WX    TMP DP  RH WIND       PRES   REMARKS
GRAND FORKS    PTCLDY    40  35  83 S6        29.74S
6HR MIN TEMP:  39; 6HR MAX TEMP:  46;

GRAND FORKS AF CLEAR     42  37  79 SW6       29.75S
GRAND CITY NWS   N/A     41 N/A N/A S10         N/A
BUXTON           N/A     42  42  97 S6          N/A
DEVILS LAKE    PTCLDY    46  36  66 SW9       29.75R
6HR MIN TEMP:  46; 6HR MAX TEMP:  52;

FARGO          MOCLDY    45  40  82 S6        29.80R
6HR MIN TEMP:  45; 6HR MAX TEMP:  54;

WAHPETON ARPT  CLOUDY    39  36  87 SE6       29.82S
$$

 *****  WEATHER ACROSS CENTRAL AND WESTERN NORTH DAKOTA  *****

CITY           SKY/WX    TMP DP  RH WIND       PRES   REMARKS
JAMESTOWN      MOCLDY    40  35  83 S3        29.79F
6HR MIN TEMP:  38; 6HR MAX TEMP:  52;

BISMARCK       CLOUDY    39  32  76 CALM      29.83S
6HR MIN TEMP:  38; 6HR MAX TEMP:  52;

MINOT          CLEAR     51  35  54 SW14      29.76R
6HR MIN TEMP:  48; 6HR MAX TEMP:  56;

MINOT AFB      PTCLDY    48  37  67 W8        29.75R
6HR MIN TEMP:  46; 6HR MAX TEMP:  52;

GARRISON         N/A     45  39  79 W3        29.81R
6HR MIN TEMP:  42; 6HR MAX TEMP:  48;

WILLISTON      MOCLDY    42  36  79 S5        29.82R
6HR MIN TEMP:  38; 6HR MAX TEMP:  47;

DICKINSON      MOCLDY    43  31  62 SW6       29.85R
6HR MIN TEMP:  38; 6HR MAX TEMP:  50;

HETTINGER      CLOUDY    41  28  60 NW3       29.89R
6HR MIN TEMP:  38; 6HR MAX TEMP:  47;

$$

 *****  OTHER OBSERVATIONS NORTHEAST NORTH DAKOTA  *****

CITY           SKY/WX    TMP DP  RH WIND       PRES   REMARKS
WALHALLA         N/A     46  37  71 CALM      29.70F
LANGDON        FAIR      37  34  87 SW5       29.73S
CAVALIER       FAIR      46  37  71 S7        29.71S
GRAFTON        FAIR      45  39  81 SW9       29.73R
CANDO          FAIR      37  34  87 SW3       29.75S
FORT TOTTEN      N/A     47  33  57 SW5       29.95S
ROLLA          FAIR      50  37  62 W6        29.74S
RUGBY          FAIR      43  36  75 CALM      29.76R
 ***** THE ABOVE OBSERVATIONS ARE NON NWS ARE NOT QUALITY
        CONTROLLED AND MAY MIS-REPORT RAIN FOR SNOW...
$$

 *****  OTHER OBSERVATIONS SOUTHEAST NORTH DAKOTA *****

CITY           SKY/WX    TMP DP  RH WIND       PRES   REMARKS
COOPERSTOWN    NOT AVBL
VALLEY CITY    FAIR      39  39 100 CALM      29.80R
OAKES            N/A     39  39 100 S8        29.82S
GWINNER        SUNNY     46  45  93 SW10      29.82S
BUFFALO          N/A     43  35  73 SW6         N/A
WYNDMERE         N/A     37  37 100 E2          N/A
 ***** THE ABOVE OBSERVATIONS ARE NON NWS ARE NOT QUALITY
       CONTROLLED AND MAY MIS-REPORT RAIN FOR SNOW...
$$

  *****  WEATHER ACROSS NORTHERN MINNESOTA  *****

CITY           SKY/WX    TMP DP  RH WIND       PRES   REMARKS
FLAG ISLAND    CLOUDY    50  45  81 S7        29.70S
WARROAD        CLOUDY    48  43  81 SW8       29.73R
ROSEAU         CLOUDY    46  39  76 S7        29.72S
HALLOCK        MOCLDY    45  37  76 S6        29.71S
THF RVR FALLS  PTCLDY    46  39  76 S9        29.76R
6HR MIN TEMP:  46; 6HR MAX TEMP:  52;

HALSTAD          N/A     42  39  88 S8          N/A
FOSSTON        PTCLDY    45  39  81 CALM      29.79R
BAUDETTE       CLOUDY    49  41  74 SW6       29.73S
6HR MIN TEMP:  49; 6HR MAX TEMP:  52;

WASKISH        CLOUDY    54  45  71 CALM      29.75S
CROOKSTON      PTCLDY    43  39  87 S7        29.77S
$$
  *****  WEATHER ACROSS CENTRAL AND WEST MINNESOTA  *****

CITY           SKY/WX    TMP DP  RH WIND       PRES   REMARKS
BEMIDJI        MOCLDY    49  42  75 S7        29.77F
PARK RAPIDS    MOCLDY    44  40  85 CALM      29.81F
6HR MIN TEMP:  44; 6HR MAX TEMP:  52;

WADENA         MOCLDY    39  37  93 CALM      29.82S
DETROIT LAKES  FAIR      45  43  93 S5        29.81F
MOORHEAD       MOCLDY    45  45 100 S7        29.81R
FERGUS FALLS   MOCLDY    45  39  81 SE5       29.83S
ELBOW LAKE     FAIR      44  42  92 SE6       29.82S
6HR MIN TEMP:  45; 6HR MAX TEMP:  48;

MORRIS MN      CLOUDY    43  41  93 SE5       29.82S
STAPLES        MOCLDY    41  39  93 CALM      29.83S
WHEATON        CLOUDY    37  36  93 CALM      29.85R
$$
  *****  WEATHER ELSEWHERE ACROSS MINNESOTA  *****

CITY           SKY/WX    TMP DP  RH WIND       PRES   REMARKS
DULUTH         CLOUDY    48  45  89 S8        29.87F FOG
6HR MIN TEMP:  47; 6HR MAX TEMP:  49;

INTRNTL FALLS  CLOUDY    52  42  69 SW3       29.74F
6HR MIN TEMP:  49; 6HR MAX TEMP:  53;

ELY            CLOUDY    48  43  81 S6        29.83F
CLOQUET        CLOUDY    46  45  93 S5        29.87F FOG
BRAINERD       CLOUDY    47  41  80 S6        29.85S
6HR MIN TEMP:  45; 6HR MAX TEMP:  51;

HIBBING        CLOUDY    40  38  93 SE3       29.84F FOG
6HR MIN TEMP:  36; 6HR MAX TEMP:  40;

ALEXANDRIA     MOCLDY    46  42  86 SE3       29.84F
6HR MIN TEMP:  45; 6HR MAX TEMP:  55;

SAINT CLOUD    CLOUDY    48  41  76 E5        29.86F
6HR MIN TEMP:  45; 6HR MAX TEMP:  51;

MINNEAPOLIS    CLOUDY    47  44  90 E8        29.90F
6HR MIN TEMP:  46; 6HR MAX TEMP:  48;

$$

  *****  WEATHER ACROSS SOUTH DAKOTA  *****

CITY           SKY/WX    TMP DP  RH WIND       PRES   REMARKS
SIOUX FALLS    MOCLDY    52  50  93 SW6       29.85R FOG
6HR MIN TEMP:  50; 6HR MAX TEMP:  56;

BROOKINGS      NOT AVBL
WATERTOWN      MOCLDY    42  41  96 CALM      29.84R
6HR MIN TEMP:  41; 6HR MAX TEMP:  48;

HURON          CLOUDY    38  36  92 NW3       29.84S
6HR MIN TEMP:  36; 6HR MAX TEMP:  50;

SISSETON         N/A     39  38  96 SW3       29.81S
ABERDEEN       CLOUDY    37  35  92 SW5       29.85R
6HR MIN TEMP:  33; 6HR MAX TEMP:  43;

MITCHELL       CLOUDY    46  40  79 W7        29.86S
PIERRE         CLOUDY    40  34  79 W6        29.86S
6HR MIN TEMP:  38; 6HR MAX TEMP:  46;

MOBRIDGE       CLOUDY    43  37  79 SE5       29.84R
RAPID CITY     CLOUDY    44  32  62 CALM      29.91S
6HR MIN TEMP:  42; 6HR MAX TEMP:  52;

$$

  *****  SOME WEATHER IN NEARBY STATES *****

CITY           SKY/WX    TMP DP  RH WIND       PRES   REMARKS
GLASGOW MT     PTCLDY    49  40  71 SW7       29.86R
6HR MIN TEMP:  47; 6HR MAX TEMP:  51; 6HR PCP: TRACE;

GREAT FALLS MT MOCLDY    47  35  63 SW13      29.98R
6HR MIN TEMP:  45; 6HR MAX TEMP:  49;

CHEYENNE WY    CLOUDY    56  27  32 W8        30.16S
6HR MIN TEMP:  49; 6HR MAX TEMP:  57;

SCOTTSBLUFF NE CLOUDY    47  37  68 NW7       30.03R
6HR MIN TEMP:  43; 6HR MAX TEMP:  49;

OMAHA NE       FOG       57  56  96 S13       29.94F VSB 1
6HR MIN TEMP:  54; 6HR MAX TEMP:  57;

DES MOINES IA  FOG       59  57  93 S12       29.98F VSB 1/8
6HR MIN TEMP:  51; 6HR MAX TEMP:  59;

DAVENPORT IA   FOG       50  49  96 SE6       30.05F VSB 1/4
6HR MIN TEMP:  40; 6HR MAX TEMP:  50;

CHICAGO IL     CLOUDY    53  45  74 W3        30.04F
6HR MIN TEMP:  53; 6HR MAX TEMP:  54;

EAU CLAIRE WI  CLOUDY    49  48  97 S7        29.97F
6HR MIN TEMP:  49; 6HR MAX TEMP:  50;

LA CROSSE WI   CLOUDY    51  50  96 S8        30.00S FOG
6HR MIN TEMP:  51; 6HR MAX TEMP:  51;

$$

  *****  SOME NATIONAL WEATHER *****

CITY           SKY/WX    TMP DP  RH WIND       PRES   REMARKS
LA GUARDIA NY  MOCLDY    52  44  74 NW10      29.81R



USA.gov is the U.S. government's official web portal to all federal, state and local government web resources and services.